Погода в Чанкае

Турция     39°53′28″N   32°51′39″E
темп.,
°C
ветер,
м/с
пор.,
м/с
влажн.,
%
обл.,
%
осадки,
мм/ч
давл.,
гПа
погр.,
м
19 июня, сб
сб1900:00+17юв00565 0.0 101211
03:00+15с11615 0.0 101211
06:00+16св116219 0.0 101211
09:00+21всв01434 0.0 1012564
12:00+25з233421 0.0 10102389
15:00+25ююз013819 0.0 1009983
18:00+23св33415 0.2 1009405
21:00+19ссв11555 0.2 101011
20 июня, вс
вс2000:00+17ссв225846 0.0 101011
03:00+15с11654 0.0 101111
06:00+16с11662 0.0 101111
09:00+22з00455 0.0 1011466
12:00+27юз12334 0.0 10101723
15:00+29сз342892 0.0 10082760
18:00+27сз45337 0.0 1006193
21:00+20сз335697 0.0 100834
21 июня, пн
пн2100:00+19ссз236510 0.0 100968
03:00+16зсз118543 0.7 101011
06:00+16с0081100 0.0 100911
09:00+18зюз2272100 0.9 1011475
12:00+22з225932 0.3 10101018
15:00+25зсз3245100 0.6 10091818
18:00+23зсз465262 0.3 1008417
21:00+20з346628 0.4 101064
22 июня, вт
вт2200:00+17юз11804 0.2 101111
03:00+15зсз11855 0.3 101111
06:00+15ссв11848 0.0 101211
09:00+21з226137 0.1 1012548
12:00+25зюз224391 0.1 10101557
15:00+27з443778 0.1 10092252
18:00+21ссв4557100 0.5 1011249
21:00+17ссв227856 2.5 101332
23 июня, ср
ср2300:00+16всв22780 0.0 101311
03:00+15ссв118025 0.0 101411
06:00+15св11805 0.0 101411
09:00+20з11595 0.0 1014560
12:00+25з22430 0.0 10131522
15:00+28з23320 0.0 10122509
18:00+26ссз66390 0.1 1013687
21:00+20ссв22590 0.1 101420